Location: Asheville, NC
(35.6000°N, 82.5500°W)
Time: 09:18:21
(UTC-05:00)

SEEDS - Visible Passes

Search period start: 21 January 2018 00:00
Search period end: 31 January 2018 00:00
Orbit: 586 x 606 km, 97.5° (Epoch: 21 January)

Date Brightness Start Highest point End Pass type
(mag) Time Alt. Az. Time Alt. Az. Time Alt. Az.
21 Jan ? 18:48:47 10° SSE 18:52:55 58° ENE 18:57:03 10° N visible
22 Jan ? 06:37:27 10° ENE 06:38:57 12° E 06:40:27 10° ESE visible
22 Jan ? 18:58:42 10° SSE 19:02:55 79° ENE 19:07:07 10° N visible
23 Jan ? 06:46:32 10° NE 06:49:03 16° E 06:51:34 10° SE visible
23 Jan ? 19:08:43 10° S 19:12:55 78° W 19:17:07 10° NNW visible
24 Jan ? 06:56:00 10° NE 06:59:08 21° E 07:02:15 10° SE visible
24 Jan ? 19:18:48 10° S 19:22:56 57° W 19:27:05 10° NNW visible
25 Jan ? 07:05:40 10° NE 07:09:13 27° E 07:12:43 10° SSE visible
25 Jan ? 19:28:59 10° S 19:32:58 42° W 19:36:58 10° NNW visible
26 Jan ? 19:39:16 10° SSW 19:43:00 32° W 19:46:47 10° NNW visible
27 Jan ? 18:14:16 10° ESE 18:17:33 23° ENE 18:20:50 10° NNE visible
27 Jan ? 19:49:39 10° SSW 19:53:05 24° W 19:56:30 10° NW visible
28 Jan ? 18:23:51 10° SE 18:27:29 29° ENE 18:31:07 10° NNE visible
28 Jan ? 20:00:12 10° SW 20:03:09 18° W 20:06:06 10° NW visible
29 Jan ? 18:33:34 10° SE 18:37:26 38° ENE 18:41:20 10° N visible
29 Jan ? 20:11:00 10° SW 20:13:14 14° W 20:15:28 10° WNW visible
30 Jan ? 18:43:21 10° SSE 18:47:25 51° ENE 18:51:28 10° N visible
30 Jan ? 20:22:37 10° WSW 20:23:20 10° W 20:24:03 10° W visible
